Regional Weather Roundup
Issued by NWS

Home | Current Version | Previous Version | Text Only | Print | Product List | Glossary Off
Versions: 1 2 3 4 5 6 7 8 9 10 11 12 13 14 15 16 17 18 19 20 21 22 23 24 25 26 27 28 29 30 31 32 33 34 35 36 37 38 39 40 41 42 43 44 45 46 47 48 49 50

000
ASUS45 KSLC 301610
RWRUT

UTAH REGIONAL WEATHER ROUNDUP
NATIONAL WEATHER SERVICE SALT LAKE CITY UT
900 AM MST FRI JAN 30 2015

UTZ001>011-023>025-301700-

NORTHERN UTAH

CITY           SKY/WX    TMP DP  RH WIND       PRES   REMARKS
BRIGHAM CITY   PTSUNNY   36  32  87 CALM      30.15S
HILL AFB       CLOUDY    38  29  68 VRB2      30.12F
LOGAN          CLOUDY    32  32 100 CALM      30.17S FOG
OGDEN          CLOUDY    37  33  85 NW3       30.13F
PROVO AIRPORT  CLOUDY    37  36  93 CALM      30.12S FOG
SALT LAKE CITY PTSUNNY   38  36  92 CALM      30.13F
VERNAL         CLOUDY    35  32  88 W3        30.18F
WENDOVER       CLOUDY    39  34  81 CALM      30.14F
HEBER CITY     CLOUDY    32  32 100 CALM      30.15S FOG
WEST JORDAN    CLOUDY    37  37 100 NW7       30.13F WCI  32

$$

UTZ012>022-026-027-301700-

SOUTHERN/CENTRAL UTAH

CITY           SKY/WX    TMP DP  RH WIND       PRES   REMARKS
BLANDING       CLOUDY    32  32 100 CALM      30.25S
BRYCE CANYON   LGT SNOW  31  30  96 SE6       30.07S FOG     WCI  25
CEDAR CITY     CLOUDY    37  36  96 SW5       30.01F FOG     WCI  33
DELTA          CLOUDY    37  37 100 NW6       30.07F WCI  33
HANKSVILLE     CLOUDY    41  41 100 CALM      30.15F
MILFORD        LGT RAIN  39  37  92 N15       30.04F WCI  31
MOAB/CYNLANDS  CLOUDY    42  39  89 SE5       30.12F
PRICE          LGT RAIN  37  35  92 CALM      30.14S FOG
ST GEORGE      CLOUDY    46  43  87 S3        30.02S
KANAB          CLOUDY    37  36  93 N9        30.08S WCI  31

$$

REGIONAL REPORTS     COLORADO/ARIZONA

CITY           SKY/WX    TMP DP  RH WIND       PRES   REMARKS
CRAIG, CO      PTSUNNY   34  29  82 NE6       30.20S WCI  29
GRAND JUNCTION CLOUDY    39  33  79 SE7       30.14F WCI  34
RIFLE          CLOUDY    33  29  85 CALM      30.17F
MONTROSE       CLOUDY    39  34  82 CALM      30.16F
CORTEZ         LGT RAIN  37  34  89 SE6       30.17R WCI  32
PAGE, AZ       NOT AVBL
GRAND CANYON   LGT RAIN  37  34  89 E10       30.01F FOG     WCI  30
KINGMAN        LGT RAIN  47  45  93 NE8       29.91F
FLAGSTAFF      MIX PCPN  36  35  96 NE9       30.01S VSB 1   WCI  29

$$

REGIONAL REPORTS    NEVADA/IDAHO/WYOMING

CITY           SKY/WX    TMP DP  RH WIND       PRES   REMARKS
LAS VEGAS, NV  LGT RAIN  54  44  69 NW7       29.92F
ELY            CLOUDY    33  33 100 N13       30.09S WCI  24
ELKO           CLOUDY    36  32  85 CALM      30.13R
POCATELLO, ID  MOSUNNY   30  30 100 CALM      30.20F
BURLEY         CLOUDY    33  29  85 CALM      30.20S
EVANSTON, WY   PTSUNNY   29  25  85 N7        30.16S WCI  22
ROCK SPRINGS   PTSUNNY   28  27  96 CALM      30.18F
KEMMERER       PTSUNNY   27  21  80 N6        30.18S WCI  20

$$


USA.gov is the U.S. government's official web portal to all federal, state and local government web resources and services.